MRAM weather

Amubri Airport
Amubri, Limon, Costa Rica

Public forecast

Using degrees Celsius for public forecast. Weather courtesy of forecast.io.

Closest aviation weather report (METAR) to Amubri Airport

Report is more than 6 hours old.

Closest report is Cap Manuel NiƱo International Airport, 26.3 nm (48.7 km) E. Retrieved 2019/08/28 01:00 UTC (9 months ago):

MPCH 280100Z 00000KT 9999 FEW030 SCT080 Q1012 RMK HZ S-SW

Closest aviation forecast (TAF) to Amubri Airport

Closest forecast is Limon International Airport, 26.5 nm (49.1 km) N. Retrieved 2020/05/29 06:42 UTC (4 minutes ago):

TAF MRLM 290539Z 2906/3006 25004KT 9999 SCT020 BKN130 TX30/2919Z TN22/2911Z TEMPO 2906/2910 DZ BECMG 2915/2917 03007KT BECMG 3001/3003 25005KT